sat.trackr.live / text

‹ back to catalog

STARLINK-3352

NORAD 51147 · 2022-005AV

PAYLOAD ACTIVE UNKNOWN

§ Identity

Operator
Country
US
Launch date
2022-01-19
Launch site
AFETR
Launch vehicle
Mass (kg)
RCS (m²)

Purposes: comms

External: N2YO · Heavens-Above · Gunter

§ Orbital elements

Epoch: 2026-05-25T03:11:54.329280Z

Period
94.12 min
Inclination
53.1891°
Eccentricity
0.0002098
Mean motion
15.30025176 rev/d
Perigee alt
474.3 km
Apogee alt
477.2 km
Semi-major
6,853.9 km
B*
1.1080e-3
RAAN
303.3318°
Arg perigee
168.3847°
Mean anomaly
191.7202°
Rev number
24,045

§ Raw data

STARLINK-33521 51147U 22005AV  26145.13326770  .00032424  00000+0  11080-2 0  99902 51147  53.1891 303.3318 0002098 168.3847 191.7202 15.30025176240451

JSON: /api/v1/satellites/51147 · /tle

For live sub-satellite position, see the globe view (requires WebGL).

§ Visibility from observer

Set your observer location to see the next 7 days of passes ≥ 10°. The values pass through the URL so the page stays shareable.

No JS? Fill the form by hand. The geolocation button needs JavaScript.